Ravenna, OH

11:26 AM EDT on October 19, 2019 (GMT -0400)
Ravenna

Weather History for KPOV - August, 2019

Change the Weather History Date:

Friday, August 23, 2019

  Actual Average (WUND) Record (WUND)
Temperature  
Mean Temperature 62 °F -  
Max Temperature 72 °F - - (-1)
Min Temperature 53 °F - - (-1)
Degree Days  
Heating Degree Days 2    
Growing Degree Days 12 (Base 50)    
Moisture  
Dew Point 50 °F    
Average Humidity 66    
Maximum Humidity 90    
Minimum Humidity 44    
Precipitation  
Precipitation 0.00 in - - ()
Sea Level Pressure  
Sea Level Pressure 30.14 in    
Wind  
Wind Speed 4 mph (North)    
Max Wind Speed 12 mph    
Max Gust Speed 16 mph    
Visibility 10 miles    
Events      
Averages and records for this station are not official NWS values.
T = Trace of Precipitation, MM = Missing Value Source: NWS Daily Summary

Daily Weather History Graph

Daily Weather History Graph

Search for Another Location

Airport or City:

Astronomy

Aug. 23, 2019 Rise Set
Actual Time 6:42 AM EDT 8:12 PM EDT
Civil Twilight 6:13 AM EDT 8:41 PM EDT
Nautical Twilight 5:38 AM EDT 9:16 PM EDT
Astronomical Twilight 5:01 AM EDT 9:53 PM EDT
Moon No Moon Rise 2:22 PM EDT (8/23)
Length of Visible Light 14h 28m
Length of Day
13h 30m
Waning Gibbous, 50% of the Moon is Illuminated
Aug 23
Waning Gibbous
Aug 30
New
Sep 5
First Quarter
Sep 14
Full
Sep 21
Last Quarter

Hourly Weather History & Observations

Time (EDT) Temp. Dew Point Humidity Pressure Visibility Wind Dir Wind Speed Gust Speed Precip Events Conditions
12:18 AM 60.4 °F 54.1 °F 80% 30.07 in 10.0 mi NNE 3.5 mph - N/A   Clear
12:36 AM 59.9 °F 53.6 °F 80% 30.08 in 10.0 mi NNE 3.5 mph - N/A   Clear
12:55 AM 59.7 °F 53.6 °F 80% 30.08 in 10.0 mi Calm Calm - N/A   Clear
1:15 AM 59.7 °F 53.2 °F 79% 30.08 in 10.0 mi NNE 3.5 mph - N/A   Clear
1:35 AM 59.0 °F 53.2 °F 81% 30.08 in 10.0 mi NE 3.5 mph - N/A   Clear
1:58 AM 59.0 °F 52.7 °F 80% 30.08 in 10.0 mi NNE 3.5 mph - N/A   Clear
2:15 AM 58.5 °F 52.5 °F 81% 30.08 in 10.0 mi Calm Calm - N/A   Clear
2:38 AM 58.3 °F 51.8 °F 79% 30.08 in 10.0 mi North 3.5 mph - N/A   Clear
2:56 AM 58.8 °F 51.1 °F 75% 30.08 in 10.0 mi North 3.5 mph - N/A   Clear
3:18 AM 57.7 °F 50.9 °F 78% 30.09 in 10.0 mi Calm Calm - N/A   Clear
3:36 AM 57.9 °F 51.1 °F 78% 30.09 in 10.0 mi Calm Calm - N/A   Clear
3:56 AM 56.5 °F 51.3 °F 83% 30.09 in 10.0 mi Calm Calm - N/A   Clear
4:15 AM 54.1 °F 51.3 °F 90% 30.09 in 10.0 mi Calm Calm - N/A   Clear
4:35 AM 53.4 °F 50.5 °F 90% 30.09 in 10.0 mi Calm Calm - N/A   Clear
4:59 AM 55.6 °F 50.0 °F 81% 30.09 in 10.0 mi Calm Calm - N/A   Clear
5:15 AM 55.6 °F 49.5 °F 80% 30.09 in 10.0 mi North 3.5 mph - N/A   Clear
5:39 AM 55.8 °F 48.7 °F 77% 30.10 in 10.0 mi North 3.5 mph - N/A   Clear
5:57 AM 55.8 °F 48.2 °F 76% 30.10 in 10.0 mi North 3.5 mph - N/A   Clear
6:19 AM 55.4 °F 48.2 °F 77% 30.10 in 10.0 mi North 3.5 mph - N/A   Clear
6:55 AM 54.7 °F 48.4 °F 79% 30.11 in 10.0 mi Calm Calm - N/A   Clear
7:15 AM 54.7 °F 49.1 °F 81% 30.12 in 10.0 mi North 4.6 mph - N/A   Clear
7:35 AM 56.3 °F 49.6 °F 78% 30.12 in 10.0 mi North 3.5 mph - N/A   Clear
7:59 AM 58.3 °F 50.4 °F 75% 30.13 in 10.0 mi North 3.5 mph - N/A   Clear
8:15 AM 59.2 °F 50.7 °F 74% 30.13 in 10.0 mi NNE 3.5 mph - N/A   Clear
8:39 AM 60.3 °F 51.4 °F 73% 30.13 in 10.0 mi Calm Calm - N/A   Clear
8:57 AM 61.7 °F 51.6 °F 69% 30.14 in 10.0 mi NNE 4.6 mph - N/A   Clear
9:19 AM 62.2 °F 51.8 °F 69% 30.14 in 10.0 mi North 4.6 mph - N/A   Clear
9:37 AM 63.3 °F 52.7 °F 68% 30.14 in 10.0 mi North 5.8 mph - N/A   Clear
9:55 AM 63.5 °F 52.3 °F 67% 30.15 in 10.0 mi NE 6.9 mph - N/A   Clear
10:15 AM 64.0 °F 52.3 °F 66% 30.15 in 10.0 mi NNE 6.9 mph - N/A   Clear
10:35 AM 64.4 °F 51.8 °F 64% 30.15 in 10.0 mi North 9.2 mph - N/A   Clear
11:00 AM 64.6 °F 51.1 °F 62% 30.15 in 10.0 mi North 6.9 mph - N/A   Clear
11:15 AM 65.1 °F 52.2 °F 63% 30.15 in 10.0 mi North 3.5 mph - N/A   Clear
11:36 AM 66.2 °F 51.8 °F 60% 30.15 in 10.0 mi North 5.8 mph - N/A   Scattered Clouds
11:55 AM 67.3 °F 51.4 °F 57% 30.15 in 10.0 mi North 8.1 mph - N/A   Scattered Clouds
12:16 PM 67.5 °F 50.0 °F 53% 30.15 in 10.0 mi NE 6.9 mph - N/A   Mostly Cloudy
12:35 PM 68.0 °F 51.3 °F 55% 30.15 in 10.0 mi NNE 4.6 mph - N/A   Scattered Clouds
12:59 PM 68.4 °F 49.8 °F 51% 30.15 in 10.0 mi North 5.8 mph - N/A   Mostly Cloudy
1:15 PM 68.4 °F 50.4 °F 53% 30.15 in 10.0 mi NNW 5.8 mph - N/A   Mostly Cloudy
1:35 PM 70.0 °F 50.5 °F 50% 30.14 in 10.0 mi NNW 8.1 mph - N/A   Mostly Cloudy
1:58 PM 70.0 °F 48.6 °F 46% 30.15 in 10.0 mi North 8.1 mph - N/A   Mostly Cloudy
2:15 PM 70.7 °F 47.8 °F 44% 30.15 in 10.0 mi North 9.2 mph 16.1 mph N/A   Mostly Cloudy
2:20 PM 68.4 °F 48.6 °F 49% 30.15 in 10.0 mi North 9.2 mph 16.1 mph N/A   Mostly Cloudy
2:38 PM 70.0 °F 48.7 °F 47% 30.15 in 10.0 mi North 9.2 mph - N/A   Mostly Cloudy
3:19 PM 71.6 °F 49.3 °F 45% 30.15 in 10.0 mi North 11.5 mph - N/A   Scattered Clouds
3:37 PM 70.7 °F 48.6 °F 45% 30.15 in 10.0 mi North 6.9 mph - N/A   Scattered Clouds
3:55 PM 72.1 °F 49.8 °F 45% 30.14 in 10.0 mi NNW 10.4 mph - N/A   Scattered Clouds
4:15 PM 69.4 °F 49.6 °F 49% 30.14 in 10.0 mi North 5.8 mph - N/A   Mostly Cloudy
4:35 PM 68.5 °F 48.2 °F 48% 30.14 in 10.0 mi North 5.8 mph - N/A   Scattered Clouds
4:59 PM 70.7 °F 48.7 °F 46% 30.14 in 10.0 mi North 5.8 mph - N/A   Clear
5:15 PM 70.7 °F 47.7 °F 44% 30.14 in 10.0 mi North 8.1 mph 16.1 mph N/A   Scattered Clouds
5:35 PM 68.5 °F 47.8 °F 48% 30.14 in 10.0 mi North 8.1 mph - N/A   Scattered Clouds
5:58 PM 69.3 °F 48.4 °F 47% 30.14 in 10.0 mi North 9.2 mph - N/A   Clear
6:15 PM 68.5 °F 47.1 °F 46% 30.14 in 10.0 mi North 6.9 mph - N/A   Clear
6:39 PM 68.2 °F 48.2 °F 49% 30.15 in 10.0 mi North 4.6 mph - N/A   Clear
6:57 PM 67.3 °F 45.7 °F 46% 30.15 in 10.0 mi North 4.6 mph - N/A   Clear
7:19 PM 66.0 °F 46.6 °F 49% 30.15 in 10.0 mi North 5.8 mph - N/A   Clear
7:37 PM 64.6 °F 48.0 °F 55% 30.15 in 10.0 mi North 4.6 mph - N/A   Clear
7:55 PM 63.0 °F 48.2 °F 59% 30.16 in 10.0 mi North 4.6 mph - N/A   Clear
8:15 PM 61.7 °F 48.6 °F 62% 30.16 in 10.0 mi North 3.5 mph - N/A   Clear
8:35 PM 61.7 °F 49.1 °F 63% 30.16 in 10.0 mi North 3.5 mph - N/A   Clear
8:55 PM 61.0 °F 49.6 °F 66% 30.17 in 10.0 mi Calm Calm - N/A   Clear
9:00 PM 60.4 °F 50.0 °F 68% 30.17 in 10.0 mi Calm Calm - N/A   Clear
9:15 PM 58.8 °F 50.5 °F 74% 30.17 in 10.0 mi Calm Calm - N/A   Clear
9:35 PM 59.2 °F 50.4 °F 73% 30.18 in 10.0 mi Calm Calm - N/A   Clear
9:40 PM 59.4 °F 50.4 °F 72% 30.18 in 10.0 mi Calm Calm - N/A   Clear
9:58 PM 59.0 °F 50.7 °F 74% 30.18 in 10.0 mi North 3.5 mph - N/A   Clear
10:15 PM 58.6 °F 50.9 °F 75% 30.18 in 10.0 mi North 3.5 mph - N/A   Clear
10:20 PM 58.5 °F 50.9 °F 76% 30.19 in 10.0 mi North 3.5 mph - N/A   Clear
10:38 PM 59.0 °F 50.5 °F 73% 30.19 in 10.0 mi North 3.5 mph - N/A   Clear
10:56 PM 58.5 °F 50.5 °F 75% 30.19 in 10.0 mi North 3.5 mph - N/A   Clear
11:18 PM 59.0 °F 50.2 °F 73% 30.20 in 10.0 mi North 3.5 mph - N/A   Clear
11:36 PM 56.3 °F 51.1 °F 83% 30.20 in 10.0 mi Calm Calm - N/A   Scattered Clouds
11:55 PM 56.3 °F 52.0 °F 85% 30.21 in 10.0 mi Calm Calm - N/A   Mostly Cloudy